STARLINK-1094, 44941

Orbit data source: Space-Track

STARLINK-1094, 44941 is a payload satellite owned by SpaceX/Seattle (US) in LEO that was launched on Tue, 07 Jan 2020 UTC via an FALCON 9 launch vehicle from the Air Force Eastern Test Range (AFETR). Payload-class satellites include a variety of spacecraft equipped with specific instruments for various scientific and technological missions. These include communications satellites like Starlink; space stations such as the ISS; scientific satellites like the Hubble; Earth observation satellites from companies like Planet Labs, Umbra, and HawkEye 360; GPS; miniature CubeSats for education and research; and military/defense satellites.

Loading next visibility...
Identifier
44941, 2020-001AD
Orbit
LEO
Country
Flag of USUS
Related business
Manufacturer
SpaceX/Seattle
Mission
Operational Commercial Communications
Bus & Motor
STARLINK, Unknown motor
Mass
260 kg wet, ~248 kg dry
Launch date (UTC)
2020-01-07 (6 years ago)
Launch vehicle
FALCON 9
Launch site
Air Force Eastern Test Range (AFETR)
Object type
Payload
Rocket body
Debris
Shape & HBR
Box + 1 Pan, 4.4 m
Radar Cross Section
13.562 m², Large (>1 m²)

Expand to show TLE details & history
Last TLE update: 12 hours ago

TLE from 12 hours ago
0 STARLINK-1094
1 44941U 20001AD  25242.85623058 -.00000483  00000-0 -13539-4 0  9999
2 44941  53.0529 103.3038 0001142  74.4974 285.6141 15.06390437311368
Epoch: 2025-08-30T20:32Z
TLE epoch observation values (Epoch: 2025-08-30T20:32:58.322Z)
Latitude
-0°
Longitude
175.77626°
Altitude
547.907 km
Speed
7.589 km/s
True Right ascension
06h 53m 12s
True Declination
0° 00' 00"
Sunlit
Object was in daylight at epoch
Visualization orbit readout
Latitude
Unknown
Longitude
Unknown
Altitude
Unknown
Speed
Unknown
Apparent Right ascension
Unknown
Apparent Declination
Unknown
Sunlit
N/A
Visualization observer readout
Local Sidereal Time
00:13:49
Azimuth
Unknown
Elevation
Unknown
Doppler factor
Unknown
Orbital elements
Apogee altitude
548.303 km
Perigee altitude
546.721 km
Semi-major axis
6,925.649 km
Eccentricity
0.00011
Inclination
53.0529°
RAAN
103.3038°
Arg. of periapsis
74.4974°
True anomaly
285.6015°
Mean anomaly
285.6141°
Eccentric anomaly
285.6078°
Mean motion
3.76576 °/min
Orbital period
95.6 mins
BSTAR
-0.000013539
Loading maneuver chart data...
Computing Atmospheric mass density...

Documentation

Showing up to 5 results
|